Location: Township of South Roscoe
(37.9570°N, 100.1180°W)
Time: 08:08:04
(UTC+00:00)

ITAMSAT 1 - Visible Passes

Search period start: 25 June 2022 00:00
Search period end: 05 July 2022 00:00
Orbit: 783 x 796 km, 98.9° (Epoch: 24 June)

Date Brightness Start Highest point End Pass type
(mag) Time Alt. Az. Time Alt. Az. Time Alt. Az.
27 Jun 10.2 02:59:40 10° SW 03:03:00 17° W 03:06:21 10° NW visible
28 Jun 9.4 02:28:36 10° SSW 02:33:13 33° W 02:37:53 10° NNW visible
30 Jun 10.4 03:11:27 10° WSW 03:13:54 13° W 03:16:23 10° WNW visible
01 Jul 9.7 02:39:47 10° SSW 02:44:05 26° W 02:48:25 10° NW visible
03 Jul 10.7 03:24:21 10° W 03:24:50 10° W 03:25:18 10° W visible
04 Jul 10.1 02:51:06 10° SW 02:54:58 21° W 02:58:51 10° NW visible
